| time (UTC) | temp F | wind direction | speed MPH | gust MPH | rain 1hr in | rain 24hr in | rain mn in | humidity % | barometer mb |
| 20260506211538 | 46 | 319 | 2.0 | 5.0 | 0.00 | 1.08 | 0.86 | 95 | 1009.1 |
| 20260506210045 | 46 | 348 | 1.0 | 5.0 | 0.00 | 1.08 | 0.86 | 95 | 1008.9 |
| 20260506204545 | 46 | 327 | 2.0 | 5.0 | 0.00 | 1.13 | 0.86 | 95 | 1008.9 |
| 20260506203043 | 46 | 0 | 2.0 | 6.0 | 0.00 | 1.13 | 0.86 | 95 | 1008.8 |
| 20260506201543 | 46 | 26 | 2.0 | 6.0 | 0.00 | 1.13 | 0.86 | 95 | 1008.8 |
| 20260506200044 | 46 | 281 | 1.0 | 6.0 | 0.00 | 1.13 | 0.86 | 95 | 1008.7 |
| 20260506194545 | 46 | 286 | 2.0 | 6.0 | 0.00 | 1.16 | 0.86 | 95 | 1008.7 |
| 20260506193044 | 46 | 326 | 2.0 | 8.0 | 0.00 | 1.16 | 0.86 | 95 | 1008.4 |
| 20260506191543 | 46 | 333 | 1.0 | 4.0 | 0.00 | 1.16 | 0.86 | 95 | 1008.2 |
| 20260506190044 | 46 | 355 | 1.0 | 5.0 | 0.00 | 1.16 | 0.86 | 95 | 1008.1 |
| 20260506184543 | 46 | 303 | 2.0 | 4.0 | 0.00 | 1.16 | 0.86 | 95 | 1008.0 |
| 20260506183039 | 46 | 309 | 1.0 | 6.0 | 0.00 | 1.16 | 0.86 | 95 | 1007.9 |
| 20260506181545 | 46 | 10 | 1.0 | 4.0 | 0.00 | 1.16 | 0.86 | 95 | 1007.6 |
| 20260506180046 | 47 | 350 | 2.0 | 6.0 | 0.00 | 1.16 | 0.86 | 95 | 1007.5 |
| 20260506174546 | 47 | 0 | 1.0 | 5.0 | 0.00 | 1.16 | 0.86 | 95 | 1007.5 |
| 20260506173049 | 47 | 21 | 1.0 | 4.0 | 0.00 | 1.16 | 0.86 | 95 | 1007.3 |
| 20260506171548 | 47 | 360 | 2.0 | 7.0 | 0.00 | 1.16 | 0.86 | 95 | 1007.3 |
| 20260506170040 | 47 | 317 | 1.0 | 4.0 | 0.00 | 1.16 | 0.86 | 95 | 1007.2 |
| 20260506164554 | 47 | 327 | 1.0 | 4.0 | 0.00 | 1.16 | 0.86 | 95 | 1007.1 |
| 20260506163045 | 47 | 324 | 0.0 | 5.0 | 0.00 | 1.16 | 0.86 | 96 | 1007.1 |
| 20260506161544 | 47 | 338 | 1.0 | 5.0 | 0.00 | 1.16 | 0.86 | 96 | 1007.0 |
| 20260506160049 | 47 | 305 | 2.0 | 8.0 | 0.00 | 1.16 | 0.86 | 96 | 1007.1 |
| 20260506154551 | 47 | 321 | 1.0 | 6.0 | 0.00 | 1.16 | 0.86 | 95 | 1007.0 |
| 20260506153038 | 47 | 9 | 1.0 | 3.0 | 0.00 | 1.16 | 0.86 | 96 | 1007.1 |
| 20260506151545 | 47 | 350 | 1.0 | 5.0 | 0.00 | 1.16 | 0.86 | 95 | 1007.0 |
| 20260506150045 | 47 | 21 | 1.0 | 3.0 | 0.00 | 1.16 | 0.86 | 95 | 1007.0 |
| 20260506144546 | 48 | 0 | 1.0 | 4.0 | 0.00 | 1.16 | 0.86 | 95 | 1006.9 |
| 20260506143042 | 48 | 61 | 1.0 | 4.0 | 0.00 | 1.16 | 0.86 | 95 | 1006.8 |
| 20260506141601 | 48 | 43 | 1.0 | 3.0 | 0.00 | 1.16 | 0.86 | 95 | 1006.6 |
| 20260506140040 | 48 | 22 | 2.0 | 4.0 | 0.01 | 1.16 | 0.86 | 95 | 1006.6 |
| 20260506134537 | 48 | 5 | 1.0 | 4.0 | 0.01 | 1.16 | 0.86 | 95 | 1006.5 |
| 20260506133045 | 48 | 23 | 0.0 | 3.0 | 0.01 | 1.16 | 0.86 | 95 | 1006.6 |
| 20260506131544 | 48 | 25 | 1.0 | 5.0 | 0.01 | 1.16 | 0.86 | 95 | 1006.6 |
| 20260506130045 | 48 | 43 | 0.0 | 4.0 | 0.00 | 1.16 | 0.85 | 96 | 1006.4 |
| 20260506124543 | 48 | 360 | 0.0 | 3.0 | 0.00 | 1.16 | 0.85 | 95 | 1006.5 |
| 20260506123042 | 48 | 67 | 1.0 | 6.0 | 0.00 | 1.16 | 0.85 | 95 | 1006.3 |
| 20260506121538 | 48 | 15 | 2.0 | 4.0 | 0.00 | 1.16 | 0.85 | 95 | 1006.2 |
| 20260506120109 | 48 | 24 | 1.0 | 4.0 | 0.00 | 1.16 | 0.85 | 95 | 1006.0 |
| 20260506114547 | 49 | 46 | 1.0 | 5.0 | 0.00 | 1.16 | 0.85 | 95 | 1005.9 |
| 20260506113040 | 49 | 67 | 1.0 | 5.0 | 0.00 | 1.16 | 0.85 | 96 | 1005.9 |
| 20260506111541 | 48 | 0 | 1.0 | 4.0 | 0.00 | 1.16 | 0.85 | 96 | 1005.8 |
| 20260506110038 | 49 | 21 | 2.0 | 4.0 | 0.00 | 1.16 | 0.85 | 96 | 1005.8 |
| 20260506104547 | 48 | 13 | 0.0 | 3.0 | 0.00 | 1.16 | 0.85 | 96 | 1005.8 |
| 20260506103044 | 48 | 31 | 2.0 | 5.0 | 0.00 | 1.16 | 0.85 | 96 | 1005.7 |
| 20260506101547 | 48 | 25 | 2.0 | 5.0 | 0.00 | 1.16 | 0.85 | 96 | 1005.7 |
| 20260506100041 | 48 | 355 | 0.0 | 6.0 | 0.01 | 1.16 | 0.85 | 97 | 1005.4 |
| 20260506094546 | 48 | 26 | 2.0 | 5.0 | 0.01 | 1.16 | 0.85 | 96 | 1005.5 |
| 20260506093046 | 48 | 13 | 2.0 | 5.0 | 0.01 | 1.16 | 0.85 | 96 | 1005.3 |
| 20260506091537 | 48 | 21 | 1.0 | 4.0 | 0.01 | 1.16 | 0.85 | 97 | 1005.3 |
| 20260506090045 | 48 | 334 | 2.0 | 5.0 | 0.01 | 1.15 | 0.84 | 96 | 1005.1 |
| 20260506084544 | 48 | 22 | 2.0 | 5.0 | 0.02 | 1.15 | 0.84 | 96 | 1005.1 |
| 20260506083045 | 48 | 15 | 1.0 | 5.0 | 0.03 | 1.15 | 0.84 | 97 | 1004.9 |
| 20260506081540 | 48 | 5 | 1.0 | 4.0 | 0.03 | 1.15 | 0.84 | 96 | 1004.8 |
| 20260506073050 | 49 | 0 | 0.0 | 7.0 | 0.03 | 1.12 | 0.81 | 97 | 1004.6 |
| 20260506071550 | 49 | 36 | 2.0 | 6.0 | 0.05 | 1.12 | 0.81 | 96 | 1004.5 |
| 20260506070105 | 49 | 71 | 1.0 | 4.0 | 0.05 | 1.11 | 0.80 | 97 | 1004.4 |
| 20260506061545 | 49 | 40 | 1.0 | 3.0 | 0.05 | 1.07 | 0.76 | 96 | 1004.4 |
| 20260506044556 | 49 | 0 | 1.0 | 4.0 | 0.03 | 0.96 | 0.65 | 96 | 1004.5 |
| 20260506043046 | 49 | 55 | 1.0 | 3.0 | 0.03 | 0.95 | 0.64 | 96 | 1004.4 |
| 20260506041551 | 49 | 57 | 1.0 | 4.0 | 0.02 | 0.94 | 0.63 | 96 | 1004.3 |
| 20260506040044 | 49 | 51 | 1.0 | 4.0 | 0.02 | 0.93 | 0.62 | 96 | 1004.5 |
| 20260506034538 | 49 | 19 | 1.0 | 5.0 | 0.03 | 0.94 | 0.62 | 96 | 1004.5 |
| 20260506033056 | 49 | 48 | 0.0 | 3.0 | 0.04 | 0.93 | 0.61 | 96 | 1004.6 |
| 20260506031556 | 49 | 0 | 1.0 | 3.0 | 0.06 | 0.93 | 0.61 | 96 | 1004.9 |
| 20260506030057 | 50 | 71 | 1.0 | 3.0 | 0.08 | 0.92 | 0.60 | 96 | 1005.0 |
| 20260506024543 | 50 | 34 | 1.0 | 4.0 | 0.09 | 0.91 | 0.58 | 96 | 1005.1 |
| 20260506023040 | 50 | 60 | 2.0 | 5.0 | 0.10 | 0.89 | 0.57 | 96 | 1005.2 |
| 20260506021539 | 50 | 21 | 2.0 | 4.0 | 0.11 | 0.87 | 0.55 | 96 | 1005.3 |
| 20260506020045 | 50 | 0 | 0.0 | 3.0 | 0.11 | 0.84 | 0.52 | 96 | 1005.4 |
| 20260506014544 | 50 | 0 | 1.0 | 3.0 | 0.12 | 0.82 | 0.50 | 96 | 1005.6 |
| 20260506013046 | 50 | 26 | 1.0 | 3.0 | 0.13 | 0.79 | 0.47 | 96 | 1005.6 |
| 20260506011550 | 50 | 10 | 1.0 | 5.0 | 0.12 | 0.76 | 0.44 | 96 | 1005.7 |
| 20260506010040 | 50 | 26 | 1.0 | 3.0 | 0.11 | 0.73 | 0.41 | 96 | 1005.8 |
| 20260506004625 | 50 | 14 | 1.0 | 3.0 | 0.11 | 0.71 | 0.38 | 96 | 1005.9 |
| 20260506003045 | 50 | 17 | 0.0 | 3.0 | 0.10 | 0.67 | 0.34 | 96 | 1006.0 |
| 20260506001545 | 50 | 13 | 0.0 | 3.0 | 0.12 | 0.65 | 0.32 | 96 | 1006.2 |
| 20260506000051 | 50 | 75 | 1.0 | 3.0 | 0.13 | 0.62 | 0.29 | 96 | 1006.1 |
| 20260505234607 | 51 | 27 | 1.0 | 3.0 | 0.14 | 0.60 | 0.27 | 96 | 1006.4 |
| 20260505233050 | 51 | 0 | 1.0 | 3.0 | 0.15 | 0.56 | 0.23 | 96 | 1006.6 |
| 20260505231558 | 51 | 0 | 0.0 | 2.0 | 0.16 | 0.52 | 0.20 | 96 | 1006.6 |
| 20260505230047 | 51 | 0 | 0.0 | 2.0 | 0.16 | 0.49 | 0.16 | 96 | 1006.6 |
| 20260505224544 | 51 | 14 | 0.0 | 3.0 | 0.16 | 0.47 | 0.13 | 96 | 1006.6 |
| 20260505223058 | 52 | 11 | 1.0 | 4.0 | 0.16 | 0.42 | 0.08 | 96 | 1006.7 |
| 20260505221556 | 52 | 38 | 1.0 | 3.0 | 0.17 | 0.38 | 0.04 | 96 | 1006.7 |
| 20260505220048 | 52 | 13 | 2.0 | 4.0 | 0.21 | 0.34 | 0.00 | 96 | 1006.7 |
| 20260505214543 | 52 | 25 | 1.0 | 8.0 | 0.20 | 0.30 | 0.30 | 96 | 1006.9 |
| 20260505213046 | 52 | 5 | 1.0 | 4.0 | 0.18 | 0.26 | 0.26 | 96 | 1007.1 |